| time (UTC) | temp F | wind direction | speed MPH | gust MPH | rain 1hr in | rain 24hr in | rain mn in | humidity % | barometer mb |
| 20260504081506 | 53 | 360 | 6.0 | 0.0 | 0.00 | 0.00 | 0.00 | 61 | 1003.3 |
| 20260504050004 | 57 | 104 | 7.0 | 0.0 | 0.00 | 0.00 | 0.00 | 55 | 1006.4 |
| 20260504044515 | 56 | 107 | 7.0 | 0.0 | 0.00 | 0.00 | 0.00 | 56 | 1006.4 |
| 20260504043043 | 56 | 101 | 7.0 | 0.0 | 0.00 | 0.00 | 0.00 | 56 | 1006.4 |
| 20260504041502 | 57 | 106 | 7.0 | 0.0 | 0.00 | 0.00 | 0.00 | 56 | 1006.9 |
| 20260504040115 | 57 | 101 | 6.0 | 0.0 | 0.00 | 0.00 | 0.00 | 55 | 1007.1 |
| 20260504034522 | 59 | 102 | 6.0 | 0.0 | 0.00 | 0.00 | 0.00 | 53 | 1007.3 |
| 20260504033059 | 59 | 88 | 4.0 | 0.0 | 0.00 | 0.00 | 0.00 | 52 | 1007.7 |
| 20260504031519 | 60 | 104 | 4.0 | 0.0 | 0.00 | 0.00 | 0.00 | 51 | 1007.8 |
| 20260504030112 | 60 | 82 | 4.0 | 0.0 | 0.00 | 0.00 | 0.00 | 49 | 1007.7 |
| 20260504024542 | 61 | 67 | 3.0 | 0.0 | 0.00 | 0.00 | 0.00 | 49 | 1007.6 |
| 20260504023108 | 62 | 72 | 5.0 | 0.0 | 0.00 | 0.00 | 0.00 | 47 | 1007.6 |
| 20260504021530 | 63 | 38 | 4.0 | 0.0 | 0.00 | 0.00 | 0.00 | 45 | 1007.8 |
| 20260504020125 | 64 | 38 | 4.0 | 0.0 | 0.00 | 0.00 | 0.00 | 44 | 1007.9 |
| 20260504014539 | 65 | 41 | 4.0 | 0.0 | 0.00 | 0.00 | 0.00 | 43 | 1007.9 |
| 20260504013037 | 65 | 40 | 1.0 | 0.0 | 0.00 | 0.00 | 0.00 | 42 | 1007.9 |
| 20260504011605 | 66 | 43 | 1.0 | 0.0 | 0.00 | 0.00 | 0.00 | 41 | 1007.8 |
| 20260504010023 | 68 | 109 | 0.0 | 0.0 | 0.00 | 0.00 | 0.00 | 39 | 1007.9 |
| 20260504004604 | 69 | 9 | 0.0 | 0.0 | 0.00 | 0.00 | 0.00 | 38 | 1007.9 |
| 20260504003040 | 71 | 355 | 0.0 | 0.0 | 0.00 | 0.00 | 0.00 | 36 | 1008.0 |
| 20260504001605 | 73 | 355 | 1.0 | 0.0 | 0.00 | 0.00 | 0.00 | 37 | 1008.2 |
| 20260504000031 | 74 | 355 | 1.0 | 0.0 | 0.00 | 0.00 | 0.00 | 35 | 1008.3 |
| 20260503234507 | 74 | 351 | 1.0 | 0.0 | 0.00 | 0.00 | 0.00 | 33 | 1008.6 |
| 20260503233054 | 75 | 5 | 2.0 | 0.0 | 0.00 | 0.00 | 0.00 | 29 | 1008.9 |
| 20260503231541 | 76 | 36 | 1.0 | 0.0 | 0.00 | 0.00 | 0.00 | 32 | 1008.8 |
| 20260503230019 | 75 | 36 | 1.0 | 0.0 | 0.00 | 0.00 | 0.00 | 32 | 1008.8 |
| 20260503224505 | 76 | 9 | 3.0 | 0.0 | 0.00 | 0.00 | 0.00 | 29 | 1009.0 |
| 20260503223040 | 77 | 336 | 1.0 | 0.0 | 0.00 | 0.00 | 0.00 | 30 | 1008.9 |
| 20260503221529 | 76 | 336 | 2.0 | 0.0 | 0.00 | 0.00 | 0.00 | 31 | 1009.1 |
| 20260503220007 | 75 | 117 | 3.0 | 0.0 | 0.00 | 0.00 | 0.00 | 30 | 1009.2 |
| 20260503214545 | 75 | 103 | 2.0 | 0.0 | 0.00 | 0.00 | 0.00 | 31 | 1009.2 |
| 20260503213019 | 76 | 60 | 4.0 | 0.0 | 0.00 | 0.00 | 0.00 | 29 | 1009.6 |
| 20260503211601 | 77 | 327 | 2.0 | 0.0 | 0.00 | 0.00 | 0.00 | 32 | 1009.8 |
| 20260503210019 | 77 | 355 | 3.0 | 0.0 | 0.00 | 0.00 | 0.00 | 36 | 1010.0 |
| 20260503204557 | 77 | 262 | 3.0 | 0.0 | 0.00 | 0.00 | 0.00 | 31 | 1010.1 |
| 20260503203031 | 76 | 241 | 3.0 | 0.0 | 0.00 | 0.00 | 0.00 | 30 | 1010.4 |
| 20260503201551 | 75 | 325 | 3.0 | 0.0 | 0.00 | 0.00 | 0.00 | 32 | 1010.6 |
| 20260503200053 | 76 | 233 | 4.0 | 0.0 | 0.00 | 0.00 | 0.00 | 35 | 1010.7 |
| 20260503194537 | 76 | 344 | 4.0 | 0.0 | 0.00 | 0.00 | 0.00 | 35 | 1010.8 |
| 20260503193006 | 76 | 286 | 2.0 | 0.0 | 0.00 | 0.00 | 0.00 | 32 | 1010.8 |
| 20260503191550 | 77 | 293 | 3.0 | 0.0 | 0.00 | 0.00 | 0.00 | 36 | 1011.0 |
| 20260503190025 | 76 | 298 | 4.0 | 0.0 | 0.00 | 0.00 | 0.00 | 35 | 1011.1 |
| 20260503184518 | 76 | 330 | 5.0 | 0.0 | 0.00 | 0.00 | 0.00 | 34 | 1011.3 |
| 20260503183101 | 75 | 53 | 3.0 | 0.0 | 0.00 | 0.00 | 0.00 | 35 | 1011.6 |
| 20260503181525 | 75 | 355 | 3.0 | 0.0 | 0.00 | 0.00 | 0.00 | 34 | 1011.9 |
| 20260503180057 | 75 | 70 | 2.0 | 0.0 | 0.00 | 0.00 | 0.00 | 37 | 1012.1 |
| 20260503174530 | 75 | 348 | 5.0 | 0.0 | 0.00 | 0.00 | 0.00 | 35 | 1012.1 |
| 20260503173011 | 74 | 303 | 3.0 | 0.0 | 0.00 | 0.00 | 0.00 | 38 | 1012.3 |
| 20260503171607 | 73 | 343 | 3.0 | 0.0 | 0.00 | 0.00 | 0.00 | 41 | 1012.3 |